Location: Bakhuizen
(52.8696°N, 5.4575°E)
Time: 20:44:40
(UTC+00:00)

USA 281 - Pass Details

Date: 11 May 2021
Orbit: 1078 x 1081 km, 106.0° (Epoch: 18 June)

Event Time Altitude Azimuth Distance (km) Brightness Sun altitude
Exits shadow 23:36:55 - 124° (SE) 3,148 5.3 -19.0°
Reaches altitude 10° 23:37:32 10° 123° (ESE) 2,918 5.2 -19.0°
Maximum altitude 23:43:48 50° 50° (NE) 1,352 4.0 -19.0°
Drops below altitude 10° 23:50:06 10° 338° (NNW) 2,934 6.5 -18.9°
Sets 23:52:42 0° 333° (NNW) 3,893 7.1 -18.9°
